Location: Creston
(40.9870°N, 81.8938°W)
Time: 17:42:30
(UTC+00:00)

Cosmos 1689 Rocket - Pass Details

Date: 29 October 2020
Orbit: 360 x 375 km, 97.5° (Epoch: 23 November)

Event Time Altitude Azimuth Distance (km) Brightness Sun altitude
Rises 22:56:10 0° 27° (NNE) 2,204 5.5 -6.2°
Reaches altitude 10° 22:58:26 10° 46° (NE) 1,350 4.3 -6.7°
Maximum altitude 23:00:39 20° 96° (E) 916 3.4 -7.1°
Drops below altitude 10° 23:02:50 10° 146° (SSE) 1,341 4.6 -7.5°
Sets 23:05:04 0° 165° (SSE) 2,182 5.9 -7.9°
